Location: Unspecified
(48.7670°N, 0.0000°E)
Time: 18:08:01
(UTC+00:00)

Altair - Pass Details

Date: 23 June 2019
Orbit: 1501 x 1683 km, 47.2° (Epoch: 17 July)

Event Time Altitude Azimuth Distance (km) Brightness Sun altitude
Rises 02:42:33 0° 290° (WNW) 4,869 10.0 -9.4°
Reaches altitude 10° 02:46:14 10° 280° (W) 3,902 9.4 -9.0°
Maximum altitude 02:54:11 28° 227° (SW) 2,769 8.3 -8.2°
Drops below altitude 10° 03:02:13 10° 173° (S) 3,937 9.3 -7.4°
Sets 03:05:59 0° 163° (SSE) 4,919 9.8 -7.0°
